Total_Precipitation_Accumulation
1.57 1.48 1.37 1.25 1.23 1.26 1.29 1.38 1.53 1.46 1.18 0.90 0.84 0.88 0.94 0.97 1.09 1.04 0.98 1.17 1.21 1.21 1.25 1.29 1.30 1.23 1.19 1.21 1.29 1.38 1.46 1.53 1.59 1.65 1.67 1.64 1.68 1.79
1.46 1.47 1.42 1.31 1.25 1.27 1.32 1.39 1.48 1.54 1.39 1.01 0.87 0.89 1.02 1.11 1.25 1.14 1.04 1.23 1.21 1.19 1.21 1.18 1.14 1.10 1.06 1.06 1.09 1.19 1.25 1.27 1.35 1.48 1.62 1.70 1.78 1.90
1.38 1.41 1.42 1.39 1.38 1.36 1.39 1.45 1.52 1.60 1.59 1.26 1.05 1.00 1.05 1.09 1.12 1.07 1.02 1.03 1.03 1.15 1.09 1.03 1.00 0.97 0.95 0.91 0.93 0.97 1.05 1.12 1.19 1.29 1.43 1.55 1.61 1.65
1.29 1.34 1.38 1.39 1.43 1.45 1.48 1.50 1.50 1.51 1.52 1.41 1.17 1.03 0.98 0.95 0.96 0.96 0.93 0.88 0.85 0.99 0.98 0.93 0.90 0.90 0.91 0.88 0.85 0.86 0.91 0.99 1.05 1.10 1.16 1.23 1.30 1.35
1.12 1.18 1.20 1.26 1.32 1.35 1.40 1.44 1.41 1.39 1.38 1.31 1.12 0.95 0.88 0.88 0.93 0.93 0.87 0.81 0.74 0.81 0.86 0.84 0.80 0.81 0.85 0.82 0.81 0.80 0.76 0.76 0.79 0.84 0.91 1.01 1.11 1.17
1.00 1.05 1.09 1.13 1.17 1.23 1.31 1.35 1.34 1.33 1.33 1.31 1.20 1.02 0.89 0.82 0.85 0.88 0.86 0.78 0.71 0.67 0.79 0.80 0.80 0.78 0.77 0.70 0.65 0.64 0.63 0.65 0.71 0.78 0.84 0.90 0.96 1.04
1.00 1.04 1.11 1.24 1.26 1.21 1.19 1.18 1.19 1.25 1.28 1.28 1.17 1.03 0.89 0.81 0.81 0.76 0.77 0.79 0.78 0.71 0.73 0.74 0.73 0.73 0.74 0.74 0.71 0.64 0.64 0.68 0.73 0.79 0.87 0.94 0.97 1.02
1.02 1.01 1.05 1.17 1.16 1.15 1.11 1.08 1.10 1.18 1.22 1.17 1.05 0.89 0.73 0.63 0.65 0.72 0.79 0.88 0.90 0.71 0.71 0.76 0.73 0.76 0.73 0.71 0.76 0.72 0.70 0.74 0.77 0.80 0.83 0.86 0.90 0.95
0.99 0.97 0.93 0.89 0.94 0.83 0.90 0.98 1.00 1.00 0.96 0.92 0.90 0.76 0.66 0.61 0.70 0.83 0.85 0.84 0.75 0.62 0.70 0.84 0.80 0.77 0.70 0.72 0.79 0.74 0.74 0.77 0.79 0.77 0.77 0.79 0.83 0.87
0.83 0.82 0.77 0.72 0.71 0.73 0.75 0.81 0.74 0.70 0.70 0.66 0.65 0.63 0.62 0.66 0.76 0.87 0.93 0.97 0.87 0.78 0.78 0.88 0.79 0.74 0.66 0.66 0.76 0.73 0.73 0.76 0.79 0.80 0.80 0.80 0.81 0.85
0.65 0.64 0.64 0.61 0.70 0.80 0.74 0.70 0.64 0.61 0.65 0.69 0.71 0.72 0.78 0.85 0.88 0.96 1.05 1.17 1.07 0.83 0.71 0.72 0.67 0.64 0.64 0.65 0.69 0.75 0.72 0.72 0.75 0.79 0.82 0.85 0.83 0.84
0.47 0.47 0.54 0.56 0.68 0.77 0.69 0.67 0.64 0.53 0.52 0.57 0.61 0.61 0.61 0.67 0.81 0.81 0.90 1.16 1.08 0.83 0.55 0.59 0.64 0.72 0.90 0.68 0.60 0.64 0.69 0.74 0.72 0.72 0.74 0.80 0.88 0.90
0.45 0.43 0.44 0.57 0.63 0.68 0.69 0.61 0.61 0.62 0.58 0.57 0.59 0.59 0.58 0.60 0.63 0.64 0.70 0.99 1.20 0.93 0.50 0.72 0.95 0.83 1.01 0.77 0.56 0.55 0.58 0.65 0.70 0.71 0.71 0.73 0.81 0.96
0.45 0.42 0.45 0.60 0.66 0.66 0.63 0.62 0.69 0.73 0.65 0.65 0.66 0.63 0.59 0.56 0.53 0.54 0.59 0.66 0.76 0.79 0.60 0.87 1.30 1.08 1.19 1.00 0.63 0.52 0.55 0.59 0.64 0.69 0.70 0.81 0.88 0.93
0.47 0.51 0.55 0.60 0.63 0.60 0.60 0.63 0.65 0.61 0.61 0.64 0.62 0.55 0.51 0.53 0.59 0.65 0.67 0.68 0.69 0.67 0.65 0.69 0.95 1.06 1.32 1.30 0.86 0.56 0.57 0.61 0.61 0.69 0.76 0.81 0.87 0.96
0.56 0.56 0.59 0.59 0.59 0.57 0.57 0.58 0.56 0.55 0.60 0.62 0.58 0.57 0.61 0.67 0.70 0.72 0.78 0.78 0.83 0.74 0.65 0.61 0.69 1.01 1.28 1.03 1.00 0.82 0.65 0.71 0.67 0.74 0.82 0.80 0.76 0.83
0.67 0.65 0.60 0.55 0.53 0.52 0.51 0.50 0.52 0.55 0.59 0.59 0.64 0.68 0.69 0.70 0.70 0.69 0.78 0.85 0.88 0.71 0.63 0.61 0.65 0.76 0.92 0.99 1.01 0.77 0.67 0.72 0.77 0.87 0.98 0.96 0.80 0.79
0.79 0.70 0.57 0.51 0.48 0.48 0.50 0.51 0.53 0.55 0.57 0.62 0.69 0.73 0.76 0.76 0.74 0.71 0.76 0.86 0.85 0.69 0.63 0.62 0.74 0.93 0.92 0.80 0.72 0.72 0.74 0.78 0.78 0.84 0.98 1.16 0.96 0.77
0.72 0.58 0.50 0.48 0.48 0.49 0.52 0.55 0.55 0.53 0.59 0.68 0.74 0.77 0.83 0.84 0.84 0.83 0.81 0.85 0.82 0.72 0.65 0.66 0.85 1.27 1.37 0.87 0.54 0.55 0.79 0.88 0.88 0.94 0.99 1.17 1.20 0.92
0.52 0.47 0.46 0.48 0.51 0.55 0.58 0.61 0.62 0.63 0.66 0.69 0.73 0.79 0.87 0.95 0.92 0.85 0.82 0.86 0.88 0.81 0.74 0.67 0.75 1.11 1.57 1.30 0.93 0.56 0.57 0.84 1.17 1.27 1.06 0.95 0.95 0.88
0.44 0.43 0.47 0.53 0.58 0.62 0.65 0.68 0.72 0.74 0.72 0.78 0.80 0.80 0.88 1.02 0.98 0.84 0.85 0.85 0.92 0.92 0.84 0.65 0.57 0.73 1.16 1.56 1.31 0.71 0.58 0.66 0.96 1.40 1.46 1.39 1.14 0.90
0.52 0.52 0.53 0.57 0.64 0.68 0.72 0.75 0.79 0.78 0.80 0.85 0.85 0.85 0.89 1.01 1.03 0.93 0.92 0.96 0.90 0.84 0.81 0.71 0.70 0.85 1.16 1.49 1.16 0.69 0.60 0.63 0.70 0.78 1.08 1.63 2.14 1.94
0.61 0.62 0.62 0.65 0.70 0.75 0.79 0.80 0.80 0.76 0.78 0.85 0.87 0.87 0.91 0.96 0.91 0.94 0.96 0.99 1.03 0.98 0.94 0.91 0.85 0.88 0.93 1.00 1.03 0.82 0.65 0.62 0.64 0.69 0.76 0.83 1.05 1.29